Location: Saluda
(35.2377°N, 82.3468°W)
Time: 11:32:17
(UTC+00:00)

Courier 1B - Visible Passes

Search period start: 05 October 2022 00:00
Search period end: 15 October 2022 00:00
Orbit: 962 x 1209 km, 28.3° (Epoch: 05 October)

Date Brightness Start Highest point End Pass type
(mag) Time Alt. Az. Time Alt. Az. Time Alt. Az.
05 Oct 9.7 01:06:09 10° SW 01:09:03 13° SSW 01:11:53 10° S visible
06 Oct 9.7 00:11:05 10° WSW 00:15:30 18° SSW 00:19:47 10° SSE visible
08 Oct 10.2 00:20:42 10° SW 00:21:25 10° SSW 00:22:09 10° SSW visible
08 Oct 9.9 23:24:07 10° WSW 23:27:53 15° SSW 23:31:33 10° S visible
